This is the latest recevied weather packets stored in our database for station/object K4KMJ. If no packets are shown the sender has not sent any weather packets the latest 10 day(s).
| Time | Temp. | Humidity | Pressure | Rain* | Wind** | Luminosity | Snow |
|---|---|---|---|---|---|---|---|
| 1788213817 | 27.22° C | 97% | 1018.8 hPa | 0 mm | - | 59 W/m² | - |
| 1788213513 | 27.22° C | 97% | 1018.8 hPa | 0 mm | - | 62 W/m² | - |
| 1788213220 | 27.22° C | 97% | 1018.8 hPa | 0 mm | - | 68 W/m² | - |
| 1788212905 | 27.22° C | 97% | 1018.9 hPa | 0 mm | - | 73 W/m² | - |
| 1788212602 | 27.78° C | 97% | 1019.1 hPa | 0 mm | - | 79 W/m² | - |
| 1788212297 | 27.78° C | 97% | 1018.9 hPa | 0 mm | - | 85 W/m² | - |
| 1788211994 | 27.78° C | 97% | 1019.1 hPa | 0 mm | - | 87 W/m² | - |
| 1788211688 | 27.78° C | 97% | 1018.9 hPa | 0 mm | - | 88 W/m² | - |
| 1788211385 | 27.78° C | 97% | 1018.9 hPa | 0 mm | - | 92 W/m² | - |
| 1788211083 | 27.78° C | 97% | 1018.9 hPa | 0 mm | - | 94 W/m² | - |
| 1788210778 | 27.78° C | 97% | 1018.9 hPa | 0 mm | - | 98 W/m² | - |
| 1788210473 | 27.78° C | 97% | 1018.6 hPa | 0 mm | - | 105 W/m² | - |
| 1788210169 | 27.78° C | 97% | 1018.6 hPa | 0 mm | - | 112 W/m² | - |
| 1788209868 | 27.22° C | 97% | 1018.6 hPa | 0 mm | - | 116 W/m² | - |
| 1788209564 | 27.22° C | 97% | 1018.8 hPa | 0 mm | - | 130 W/m² | - |
| 1788209264 | 27.22° C | 97% | 1018.6 hPa | 0 mm | - | 145 W/m² | - |
| 1788208963 | 27.22° C | 97% | 1018.5 hPa | 0 mm | - | 155 W/m² | - |
| 1788208663 | 27.22° C | 97% | 1018.7 hPa | 0 mm | - | 149 W/m² | - |
| 1788208358 | 27.22° C | 97% | 1018.8 hPa | 0 mm | - | 141 W/m² | - |
| 1788208055 | 27.22° C | 97% | 1018.8 hPa | 0 mm | - | 141 W/m² | - |
| 1788207751 | 27.22° C | 96% | 1018.9 hPa | 0 mm | - | 142 W/m² | - |
| 1788207446 | 27.78° C | 96% | 1018.8 hPa | 0 mm | - | 141 W/m² | - |
| 1788207145 | 27.78° C | 96% | 1019 hPa | 0 mm | - | 140 W/m² | - |
| 1788206841 | 27.78° C | 96% | 1018.7 hPa | 0 mm | - | 141 W/m² | - |
| 1788206541 | 27.78° C | 95% | 1018.6 hPa | 0 mm | - | 137 W/m² | - |
* Rain latest hour (hover to see other rain measurements)
** Current wind speed in m/s (hover to see current wind gust speed)